Showing default

SONATE-2, 59112

Orbit data source: Space-Track

SONATE-2, 59112 is a payload satellite owned by U Wurzburg (DE) in SSO that was launched on Mon, 04 Mar 2024 UTC via an FALCON 9 launch vehicle from the Air Force Western Test Range (AFWTR). Payload-class satellites include a variety of spacecraft equipped with specific instruments for various scientific and technological missions. These include communications satellites like Starlink; space stations such as the ISS; scientific satellites like the Hubble; Earth observation satellites from companies like Planet Labs, Umbra, and HawkEye 360; GPS; miniature CubeSats for education and research; and military/defense satellites.

Loading next visibility...
Identifier
59112, 2024-043Q
Orbit
SSO
Country
Flag of DEDE / GER
Related business
Manufacturer
U Wurzburg
Mission
Operational Amateur Technology
Bus & Motor
CUBESAT 6U, Unknown motor
Mass
~12 kg wet, ~12 kg dry
Launch date (UTC)
2024-03-04 (3 years ago)
Launch vehicle
FALCON 9
Launch site
Air Force Western Test Range (AFWTR)
Object type
Payload
Rocket body
Debris
Shape & HBR
Box + 2 Pan, 0.3 m
Radar Cross Section
0.051 m², Medium (>0.1 m² and < 1m²)

Expand to show TLE details & history
Last TLE update: 14 hours ago

TLE from 14 hours ago
0 SONATE-2
1 59112U 24043Q   26254.36615836  .00045502  00000-0  45349-3 0  9992
2 59112  97.5611  50.5431 0005262 238.5264 121.5481 15.65539205141348
Epoch: 2026-09-11T08:47Z
TLE epoch observation values (Epoch: 2026-09-11T08:47:16.082Z)
Latitude
-0.00005°
Longitude
-71.66445°
Altitude
376.696 km
Speed
7.683 km/s
True Right ascension
03h 22m 10s
True Declination
0° 00' 00"
Sunlit
Object was in full shadow at epoch
Visualization orbit readout
Latitude
Unknown
Longitude
Unknown
Altitude
Unknown
Speed
Unknown
Apparent Right ascension
Unknown
Apparent Declination
Unknown
Sunlit
N/A
Visualization observer readout
Local Sidereal Time
15:39:51
Azimuth
Unknown
Elevation
Unknown
Doppler factor
Unknown
Orbital elements
Apogee altitude
372.151 km
Perigee altitude
365.051 km
Semi-major axis
6,746.738 km
Eccentricity
0.00053
Inclination
97.5611°
RAAN
50.5431°
Arg. of periapsis
238.5264°
True anomaly
121.59947°
Mean anomaly
121.5481°
Eccentric anomaly
121.57379°
Mean motion
3.91654 °/min
Orbital period
91.92 mins
BSTAR
0.00045349
Loading maneuver chart data...
Computing Atmospheric mass density...
Loading historical data...
Loading historical data...
Loading historical data...
Loading historical data...
Loading historical data...
Loading historical data...
Loading historical data...

Documentation

Showing up to 5 results
|